Snowfall_Accumulation
0.0 0.0 0.0 0.0 0.0 0.0 0.0 0.0 0.0 0.0 0.0 0.0 0.0 0.0 0.0 0.0 0.0 0.0 0.0 0.0 0.0 0.0
0.0 0.0 0.0 0.0 0.0 0.0 0.0 0.0 0.0 0.0 0.0 0.0 0.0 0.0 0.0 0.0 0.0 0.0 0.0 0.0 0.0 0.0
0.0 0.0 0.0 0.0 0.0 0.0 0.0 0.0 0.0 0.0 0.0 0.0 0.0 0.0 0.0 0.0 0.0 0.0 0.0 0.0 0.0 0.0
0.0 0.0 0.0 0.0 0.0 0.0 0.0 0.0 0.0 0.0 0.0 0.0 0.0 0.0 0.0 0.0 0.0 0.0 0.0 0.0 0.0 0.0
0.0 0.0 0.0 0.0 0.0 0.0 0.0 0.0 0.0 0.0 0.0 0.0 0.0 0.0 0.0 0.0 0.0 0.0 0.0 0.0 0.0 0.0
0.0 0.0 0.0 0.0 0.0 0.0 0.0 0.0 0.0 0.0 0.0 0.0 0.0 0.0 0.0 0.0 0.0 0.0 0.0 0.0 0.0 0.0
0.0 0.0 0.0 0.0 0.0 0.0 0.0 0.0 0.0 0.0 0.0 0.0 0.0 0.0 0.0 0.0 0.0 0.0 0.0 0.0 0.0 0.0
0.0 0.0 0.0 0.1 0.1 0.1 0.1 0.0 0.0 0.0 0.0 0.0 0.0 0.0 0.0 0.0 0.0 0.0 0.0 0.0 0.0 0.0
0.1 0.1 0.1 0.1 0.1 0.1 0.1 0.1 0.1 0.1 0.1 0.1 0.0 nan nan 0.0 0.0 0.0 0.1 0.1 0.1 0.0
0.2 0.2 0.2 0.2 0.2 0.2 0.2 0.1 0.2 0.1 0.1 0.1 0.1 nan nan nan 0.1 0.1 0.0 0.1 0.1 0.1
0.2 0.4 0.3 0.3 0.3 0.2 0.2 0.2 0.2 0.2 0.1 0.1 0.1 nan nan nan 0.1 0.1 0.1 0.1 0.1 0.1
0.3 0.7 0.4 1.3 0.4 0.3 0.5 0.4 0.5 0.4 0.9 0.6 0.5 nan nan 0.1 0.2 0.2 0.2 0.1 0.2 0.2
0.3 1.3 1.1 0.4 0.9 1.1 0.8 0.9 1.7 1.1 0.9 0.5 1.3 nan nan nan 1.6 2.4 1.8 0.9 0.4 1.0
0.5 1.8 0.7 1.0 0.8 1.6 2.1 1.6 2.4 2.8 2.0 1.8 0.9 0.6 nan nan 1.0 2.3 3.9 3.9 3.1 1.6
Water_Equivalent
0.00 0.00 0.00 0.00 0.00 0.00 0.00 0.00 0.00 0.00 0.00 0.00 0.00 0.00 0.00 0.00 0.00 0.00 0.00 0.00 0.00 0.00
0.00 0.00 0.00 0.00 0.00 0.00 0.00 0.00 0.00 0.00 0.00 0.00 0.00 0.00 0.00 0.00 0.00 0.00 0.00 0.00 0.00 0.00
0.00 0.00 0.00 0.00 0.00 0.00 0.00 0.00 0.00 0.00 0.00 0.00 0.00 0.00 0.00 0.00 0.00 0.00 0.00 0.00 0.00 0.00
0.00 0.00 0.00 0.00 0.00 0.00 0.00 0.00 0.00 0.00 0.00 0.00 0.00 0.00 0.00 0.00 0.00 0.00 0.00 0.00 0.00 0.00
0.00 0.00 0.00 0.00 0.00 0.00 0.00 0.00 0.00 0.00 0.00 0.00 0.00 0.00 0.00 0.00 0.00 0.00 0.00 0.00 0.00 0.00
0.00 0.00 0.00 0.00 0.00 0.00 0.00 0.00 0.00 0.00 0.00 0.00 0.00 0.00 0.00 0.00 0.00 0.00 0.00 0.00 0.00 0.00
0.00 0.00 0.00 0.00 0.00 0.00 0.00 0.00 0.00 0.00 0.00 0.00 0.00 0.00 0.00 0.00 0.00 0.00 0.00 0.00 0.00 0.00
0.00 0.00 0.00 0.02 0.03 0.02 0.02 0.00 0.00 0.00 0.01 0.00 0.00 0.00 0.01 0.00 0.01 0.01 0.01 0.02 0.01 0.01
0.03 0.04 0.04 0.05 0.05 0.04 0.03 0.03 0.03 0.03 0.03 0.03 0.00 nan nan 0.01 0.01 0.02 0.02 0.02 0.02 0.02
0.05 0.05 0.05 0.05 0.04 0.04 0.04 0.04 0.04 0.03 0.03 0.03 0.02 nan nan nan 0.03 0.03 0.01 0.03 0.03 0.03
0.05 0.09 0.05 0.05 0.06 0.05 0.04 0.05 0.04 0.04 0.04 0.03 0.02 nan nan nan 0.02 0.02 0.02 0.02 0.03 0.04
0.06 0.13 0.07 0.21 0.08 0.06 0.10 0.08 0.12 0.10 0.20 0.15 0.12 nan nan 0.03 0.06 0.05 0.06 0.03 0.05 0.07
0.06 0.21 0.18 0.07 0.15 0.19 0.18 0.19 0.34 0.23 0.21 0.13 0.30 nan nan nan 0.50 0.57 0.42 0.19 0.09 0.31
0.09 0.28 0.12 0.16 0.14 0.29 0.38 0.26 0.46 0.45 0.35 0.39 0.23 0.15 nan nan 0.27 0.57 0.84 0.82 0.58 0.36
SL_Ratio
nan nan nan nan nan nan nan nan nan nan nan nan nan nan nan nan nan nan nan nan nan nan
nan nan nan nan nan nan nan nan nan nan nan nan nan nan nan nan nan nan nan nan nan nan
nan nan nan nan nan nan nan nan nan nan nan nan nan nan nan nan nan nan nan nan nan nan
nan nan nan nan nan nan nan nan nan nan nan nan nan nan nan nan nan nan nan nan nan nan
nan nan nan nan nan nan nan nan nan nan nan nan nan nan nan nan nan nan nan nan nan nan
nan nan nan nan nan nan nan nan nan nan nan nan nan nan nan nan nan nan nan nan nan nan
nan nan nan nan nan nan nan nan nan nan nan nan nan nan nan 5.0 nan nan nan nan 2.0 3.3
nan nan nan 2.5 2.5 2.7 2.8 nan nan nan 3.0 nan nan nan 2.4 2.9 2.8 2.6 2.4 2.5 2.5 2.4
2.6 2.9 3.0 3.1 3.2 3.1 3.2 3.3 3.5 3.5 3.6 3.6 nan nan nan 2.5 2.3 2.7 2.5 2.7 2.6 2.5
3.4 3.6 3.6 3.7 4.2 4.3 4.2 4.2 4.1 3.9 3.8 3.9 3.4 nan nan nan 2.6 2.8 2.8 2.7 2.8 2.7
4.1 5.0 5.1 5.1 5.1 4.8 4.5 4.6 4.6 4.2 3.9 3.9 3.6 nan nan nan 2.6 2.8 2.8 2.7 2.9 3.1
5.1 5.7 5.7 6.3 5.5 5.1 4.7 4.6 4.5 4.2 4.3 4.2 3.9 nan nan 2.8 3.3 3.4 3.6 3.1 3.2 3.0
5.3 6.1 6.4 5.8 6.2 5.7 4.5 4.8 5.0 4.6 4.3 3.5 4.4 nan nan nan 3.2 4.2 4.3 4.8 3.9 3.1
6.1 6.5 5.9 5.8 5.6 5.6 5.5 6.3 5.3 6.1 5.7 4.7 4.0 4.2 nan nan 3.6 4.0 4.6 4.8 5.3 4.6